Weather History for OTBD - June, 2014

Change the Weather History Date:

Sunday, June 1, 2014

  Actual Average Record
Temperature  
Mean Temperature 101 °F -  
Max Temperature 111 °F 106 °F 113 °F (2015)
Min Temperature 91 °F 82 °F 68 °F (2006)
Cooling Degree Days 36    
Growing Degree Days 51 (Base 50)    
Moisture  
Dew Point 51 °F    
Average Humidity 19    
Maximum Humidity 41    
Minimum Humidity 4    
Precipitation  
Precipitation 0.00 in 0.00 in - ()
Sea Level Pressure  
Sea Level Pressure 29.62 in    
Wind  
Wind Speed 7 mph ()    
Max Wind Speed 15 mph    
Max Gust Speed -    
Visibility 8.1 miles    
Events      
Averages and records for this station are not official NWS values.
T = Trace of Precipitation, MM = Missing Value Source: Averaged Metar Reports

Daily Weather History Graph

Daily Weather History Graph

Search for Another Location

Airport or City:

Trip Planner

Search our weather history database for the weather conditions in past years. The results will help you decide how hot, cold, wet, or windy it might be!

Date:

Astronomy

Jun. 01, 2014 Rise Set
Actual Time 4:43 AM AST 6:19 PM AST
Civil Twilight 4:17 AM AST 6:45 PM AST
Nautical Twilight 3:47 AM AST 7:15 PM AST
Astronomical Twilight 3:15 AM AST 7:47 PM AST
Moon 7:44 AM AST (6/1) 9:12 PM AST (6/1)
Length of Visible Light 14h 27m
Length of Day
13h 36m
Waxing Crescent, 12% of the Moon is Illuminated
Jun 1
Waxing Crescent
Jun 5
First Quarter
Jun 13
Full
Jun 19
Last Quarter
Jun 27
New

Hourly Weather History & Observations

Time (AST) Temp. Heat Index Dew Point Humidity Pressure Visibility Wind Dir Wind Speed Gust Speed Precip Events Conditions
12:00 AM 96 °F - 53 °F 15% 29.63 in 6 mi West 5.8 mph - -  
12:00 AM 96.8 °F 94.4 °F 53.6 °F 23% 29.62 in - West 5.8 mph - N/A   Clear
1:00 AM 96.8 °F 94.4 °F 53.6 °F 23% 29.62 in - WNW 5.8 mph - N/A   Clear
2:00 AM 93.2 °F 93.3 °F 60.8 °F 34% 29.59 in - West 4.6 mph - N/A   Clear
3:00 AM 93 °F - 62 °F 26% 29.62 in 6 mi West 4.6 mph - -  
3:00 AM 93.2 °F 94.1 °F 62.6 °F 36% 29.62 in - West 4.6 mph - N/A   Clear
4:00 AM 91.4 °F 93.2 °F 64.4 °F 41% 29.62 in - West 5.8 mph - N/A   Clear
5:00 AM 93.2 °F 93.3 °F 60.8 °F 34% 29.62 in - West 4.6 mph - N/A   Clear
6:00 AM 95 °F - 57 °F 18% 29.64 in 7 mi WNW 5.8 mph - -  
6:00 AM 95.0 °F 93.7 °F 57.2 °F 28% 29.62 in - WNW 5.8 mph - N/A   Clear
7:00 AM 98.6 °F 97.2 °F 55.4 °F 24% 29.65 in - WNW 11.5 mph - N/A   Clear
8:00 AM 100.4 °F 98.8 °F 55.4 °F 22% 29.65 in - NW 15.0 mph - N/A   Clear
9:00 AM 104 °F - 52 °F 10% 29.66 in 7 mi NW 11.5 mph - -  
9:00 AM 104.0 °F - 51.8 °F 17% 29.65 in - NW 11.5 mph - N/A   Clear
10:00 AM 107.6 °F - 48.2 °F 14% 29.65 in - North 9.2 mph - N/A   Clear
11:00 AM 109.4 °F - 50.0 °F 14% 29.65 in - North 15.0 mph - N/A   Clear
12:00 PM 108 °F - 53 °F 9% 29.65 in 9 mi NNW 10.4 mph - -   Clear
12:00 PM 109.4 °F 107.9 °F 53.6 °F 16% 29.62 in - NNW 10.4 mph - N/A   Clear
1:00 PM 109.4 °F 108.6 °F 55.4 °F 17% 29.59 in - North 11.5 mph - N/A   Clear
2:00 PM 109.4 °F - 33.8 °F 7% 29.59 in - WNW 12.7 mph - N/A   Clear
3:00 PM 109 °F - 34 °F 4% 29.60 in 10 mi North 13.8 mph - -   Clear
3:00 PM 109.4 °F - 33.8 °F 7% 29.59 in - North 13.8 mph - N/A   Clear
4:00 PM 109.4 °F - 37.4 °F 9% 29.59 in - NNW 10.4 mph - N/A   Clear
5:00 PM 105.8 °F - 44.6 °F 13% 29.59 in - North 11.5 mph - N/A   Clear
6:00 PM 104 °F - 41 °F 6% 29.60 in 10 mi NNW 11.5 mph - -   Clear
6:00 PM 104.0 °F - 41.0 °F 12% 29.59 in - NNW 11.5 mph - N/A   Clear
7:00 PM 102.2 °F - 46.4 °F 15% 29.59 in - NW 9.2 mph - N/A   Clear
8:00 PM 100.4 °F - 44.6 °F 15% 29.59 in - NW 6.9 mph - N/A   Clear
9:00 PM 98 °F - 48 °F 11% 29.63 in 10 mi NNW 3.5 mph - -  
9:00 PM 98.6 °F - 48.2 °F 18% 29.62 in - NNW 3.5 mph - N/A   Clear
10:00 PM 91.4 °F 89.9 °F 57.2 °F 31% 29.62 in - Variable 2.3 mph - N/A   Clear
11:00 PM 93.2 °F 90.8 °F 53.6 °F 26% 29.62 in - NNW 3.5 mph - N/A   Clear